owner,sensor,date,latitude,longitude,vertical_datum,sea_water_temperature,qcFlag 
DISL,ioos:station:DISL:MHPA:1,2013-05-01T00:00:00Z,30.6671,-87.9365,-0.9,22.51,2 
DISL,ioos:station:DISL:MHPA:1,2013-05-01T00:30:00Z,30.6671,-87.9365,-0.9,22.21,2 
DISL,ioos:station:DISL:MHPA:1,2013-05-01T01:00:00Z,30.6671,-87.9365,-0.9,21.89,2 
DISL,ioos:station:DISL:MHPA:1,2013-05-01T01:30:00Z,30.6671,-87.9365,-0.9,22.04,2 
DISL,ioos:station:DISL:MHPA:1,2013-05-01T02:00:00Z,30.6671,-87.9365,-0.9,22.24,2 
DISL,ioos:station:DISL:MHPA:1,2013-05-01T02:30:00Z,30.6671,-87.9365,-0.9,22.29,2 
DISL,ioos:station:DISL:MHPA:1,2013-05-01T03:00:00Z,30.6671,-87.9365,-0.9,22.35,2 
DISL,ioos:station:DISL:MHPA:1,2013-05-01T03:30:00Z,30.6671,-87.9365,-0.9,22.38,2 
DISL,ioos:station:DISL:MHPA:1,2013-05-01T04:00:00Z,30.6671,-87.9365,-0.9,22.39,2 
DISL,ioos:station:DISL:MHPA:1,2013-05-01T04:30:00Z,30.6671,-87.9365,-0.9,22.39,2 
DISL,ioos:station:DISL:MHPA:1,2013-05-01T05:00:00Z,30.6671,-87.9365,-0.9,22.36,2 
DISL,ioos:station:DISL:MHPA:1,2013-05-01T05:30:00Z,30.6671,-87.9365,-0.9,22.02,2 
DISL,ioos:station:DISL:MHPA:1,2013-05-01T06:00:00Z,30.6671,-87.9365,-0.9,22.04,2 
DISL,ioos:station:DISL:MHPA:1,2013-05-01T06:30:00Z,30.6671,-87.9365,-0.9,21.92,2 
DISL,ioos:station:DISL:MHPA:1,2013-05-01T07:00:00Z,30.6671,-87.9365,-0.9,22.03,2 
DISL,ioos:station:DISL:MHPA:1,2013-05-01T07:30:00Z,30.6671,-87.9365,-0.9,22.06,2 
DISL,ioos:station:DISL:MHPA:1,2013-05-01T08:00:00Z,30.6671,-87.9365,-0.9,22.07,2 
DISL,ioos:station:DISL:MHPA:1,2013-05-01T08:30:00Z,30.6671,-87.9365,-0.9,22.07,2 
DISL,ioos:station:DISL:MHPA:1,2013-05-01T09:00:00Z,30.6671,-87.9365,-0.9,22.06,2 
DISL,ioos:station:DISL:MHPA:1,2013-05-01T09:30:00Z,30.6671,-87.9365,-0.9,21.92,2 
DISL,ioos:station:DISL:MHPA:1,2013-05-01T10:00:00Z,30.6671,-87.9365,-0.9,21.7,2 
DISL,ioos:station:DISL:MHPA:1,2013-05-01T10:30:00Z,30.6671,-87.9365,-0.9,21.74,2 
DISL,ioos:station:DISL:MHPA:1,2013-05-01T11:00:00Z,30.6671,-87.9365,-0.9,21.85,2 
DISL,ioos:station:DISL:MHPA:1,2013-05-01T11:30:00Z,30.6671,-87.9365,-0.9,21.83,2 
DISL,ioos:station:DISL:MHPA:1,2013-05-01T12:00:00Z,30.6671,-87.9365,-0.9,21.77,2 
DISL,ioos:station:DISL:MHPA:1,2013-05-01T12:30:00Z,30.6671,-87.9365,-0.9,21.76,2 
DISL,ioos:station:DISL:MHPA:1,2013-05-01T13:00:00Z,30.6671,-87.9365,-0.9,21.76,2 
DISL,ioos:station:DISL:MHPA:1,2013-05-01T13:30:00Z,30.6671,-87.9365,-0.9,21.58,2 
DISL,ioos:station:DISL:MHPA:1,2013-05-01T14:00:00Z,30.6671,-87.9365,-0.9,21.62,2 
DISL,ioos:station:DISL:MHPA:1,2013-05-01T14:30:00Z,30.6671,-87.9365,-0.9,21.53,2 
DISL,ioos:station:DISL:MHPA:1,2013-05-01T15:00:00Z,30.6671,-87.9365,-0.9,21.45,2 
DISL,ioos:station:DISL:MHPA:1,2013-05-01T15:30:00Z,30.6671,-87.9365,-0.9,21.61,2 
DISL,ioos:station:DISL:MHPA:1,2013-05-01T16:00:00Z,30.6671,-87.9365,-0.9,21.56,2 
DISL,ioos:station:DISL:MHPA:1,2013-05-01T16:30:00Z,30.6671,-87.9365,-0.9,21.71,2 
DISL,ioos:station:DISL:MHPA:1,2013-05-01T17:00:00Z,30.6671,-87.9365,-0.9,21.71,2 
DISL,ioos:station:DISL:MHPA:1,2013-05-01T17:30:00Z,30.6671,-87.9365,-0.9,21.49,2 
DISL,ioos:station:DISL:MHPA:1,2013-05-01T18:00:00Z,30.6671,-87.9365,-0.9,21.49,2 
DISL,ioos:station:DISL:MHPA:1,2013-05-01T18:30:00Z,30.6671,-87.9365,-0.9,21.36,2 
DISL,ioos:station:DISL:MHPA:1,2013-05-01T19:00:00Z,30.6671,-87.9365,-0.9,21.43,2 
DISL,ioos:station:DISL:MHPA:1,2013-05-01T19:30:00Z,30.6671,-87.9365,-0.9,21.57,2 
DISL,ioos:station:DISL:MHPA:1,2013-05-01T20:00:00Z,30.6671,-87.9365,-0.9,21.6,2 
DISL,ioos:station:DISL:MHPA:1,2013-05-01T20:30:00Z,30.6671,-87.9365,-0.9,21.57,2 
DISL,ioos:station:DISL:MHPA:1,2013-05-01T21:00:00Z,30.6671,-87.9365,-0.9,21.62,2 
DISL,ioos:station:DISL:MHPA:1,2013-05-01T21:30:00Z,30.6671,-87.9365,-0.9,21.6,2 
DISL,ioos:station:DISL:MHPA:1,2013-05-01T22:00:00Z,30.6671,-87.9365,-0.9,21.56,2 
DISL,ioos:station:DISL:MHPA:1,2013-05-01T22:30:00Z,30.6671,-87.9365,-0.9,21.58,2 
DISL,ioos:station:DISL:MHPA:1,2013-05-01T23:00:00Z,30.6671,-87.9365,-0.9,21.56,2 
DISL,ioos:station:DISL:MHPA:1,2013-05-01T23:30:00Z,30.6671,-87.9365,-0.9,21.52,2 
DISL,ioos:station:DISL:MHPA:1,2013-05-02T00:00:00Z,30.6671,-87.9365,-0.9,21.5,2 
DISL,ioos:station:DISL:MHPA:1,2013-05-02T00:30:00Z,30.6671,-87.9365,-0.9,21.46,2 
DISL,ioos:station:DISL:MHPA:1,2013-05-02T01:00:00Z,30.6671,-87.9365,-0.9,21.41,2 
DISL,ioos:station:DISL:MHPA:1,2013-05-02T01:30:00Z,30.6671,-87.9365,-0.9,21.36,2 
DISL,ioos:station:DISL:MHPA:1,2013-05-02T02:00:00Z,30.6671,-87.9365,-0.9,21.32,2 
DISL,ioos:station:DISL:MHPA:1,2013-05-02T02:30:00Z,30.6671,-87.9365,-0.9,21.25,2 
DISL,ioos:station:DISL:MHPA:1,2013-05-02T03:00:00Z,30.6671,-87.9365,-0.9,21.23,2 
DISL,ioos:station:DISL:MHPA:1,2013-05-02T03:30:00Z,30.6671,-87.9365,-0.9,21.19,2 
DISL,ioos:station:DISL:MHPA:1,2013-05-02T04:00:00Z,30.6671,-87.9365,-0.9,21.04,2 
DISL,ioos:station:DISL:MHPA:1,2013-05-02T04:30:00Z,30.6671,-87.9365,-0.9,21.12,2 
DISL,ioos:station:DISL:MHPA:1,2013-05-02T05:00:00Z,30.6671,-87.9365,-0.9,21.01,2 
DISL,ioos:station:DISL:MHPA:1,2013-05-02T05:30:00Z,30.6671,-87.9365,-0.9,20.89,2 
DISL,ioos:station:DISL:MHPA:1,2013-05-02T06:00:00Z,30.6671,-87.9365,-0.9,20.84,2 
DISL,ioos:station:DISL:MHPA:1,2013-05-02T06:30:00Z,30.6671,-87.9365,-0.9,20.79,2 
DISL,ioos:station:DISL:MHPA:1,2013-05-02T07:00:00Z,30.6671,-87.9365,-0.9,20.74,2 
DISL,ioos:station:DISL:MHPA:1,2013-05-02T07:30:00Z,30.6671,-87.9365,-0.9,20.67,2 
DISL,ioos:station:DISL:MHPA:1,2013-05-02T08:00:00Z,30.6671,-87.9365,-0.9,20.63,2 
DISL,ioos:station:DISL:MHPA:1,2013-05-02T08:30:00Z,30.6671,-87.9365,-0.9,20.6,2 
DISL,ioos:station:DISL:MHPA:1,2013-05-02T09:00:00Z,30.6671,-87.9365,-0.9,20.58,2 
DISL,ioos:station:DISL:MHPA:1,2013-05-02T09:30:00Z,30.6671,-87.9365,-0.9,20.53,2 
DISL,ioos:station:DISL:MHPA:1,2013-05-02T10:00:00Z,30.6671,-87.9365,-0.9,20.47,2 
DISL,ioos:station:DISL:MHPA:1,2013-05-02T10:30:00Z,30.6671,-87.9365,-0.9,20.45,2 
DISL,ioos:station:DISL:MHPA:1,2013-05-02T11:00:00Z,30.6671,-87.9365,-0.9,20.42,2 
DISL,ioos:station:DISL:MHPA:1,2013-05-02T11:30:00Z,30.6671,-87.9365,-0.9,20.35,2 
DISL,ioos:station:DISL:MHPA:1,2013-05-02T12:00:00Z,30.6671,-87.9365,-0.9,20.29,2 
DISL,ioos:station:DISL:MHPA:1,2013-05-02T12:30:00Z,30.6671,-87.9365,-0.9,20.26,2 
DISL,ioos:station:DISL:MHPA:1,2013-05-02T13:00:00Z,30.6671,-87.9365,-0.9,20.25,2 
DISL,ioos:station:DISL:MHPA:1,2013-05-02T13:30:00Z,30.6671,-87.9365,-0.9,20.27,2 
DISL,ioos:station:DISL:MHPA:1,2013-05-02T14:00:00Z,30.6671,-87.9365,-0.9,20.27,2 
DISL,ioos:station:DISL:MHPA:1,2013-05-02T14:30:00Z,30.6671,-87.9365,-0.9,20.27,2 
DISL,ioos:station:DISL:MHPA:1,2013-05-02T15:00:00Z,30.6671,-87.9365,-0.9,20.13,2 
DISL,ioos:station:DISL:MHPA:1,2013-05-02T15:30:00Z,30.6671,-87.9365,-0.9,20.07,2 
DISL,ioos:station:DISL:MHPA:1,2013-05-02T16:00:00Z,30.6671,-87.9365,-0.9,20.17,2 
DISL,ioos:station:DISL:MHPA:1,2013-05-02T16:30:00Z,30.6671,-87.9365,-0.9,20.24,2 
DISL,ioos:station:DISL:MHPA:1,2013-05-02T17:00:00Z,30.6671,-87.9365,-0.9,20.38,2 
DISL,ioos:station:DISL:MHPA:1,2013-05-02T17:30:00Z,30.6671,-87.9365,-0.9,20.47,2 
DISL,ioos:station:DISL:MHPA:1,2013-05-02T18:00:00Z,30.6671,-87.9365,-0.9,20.52,2 
DISL,ioos:station:DISL:MHPA:1,2013-05-02T18:30:00Z,30.6671,-87.9365,-0.9,20.58,2 
DISL,ioos:station:DISL:MHPA:1,2013-05-02T19:00:00Z,30.6671,-87.9365,-0.9,20.63,2 
DISL,ioos:station:DISL:MHPA:1,2013-05-02T19:30:00Z,30.6671,-87.9365,-0.9,20.7,2 
DISL,ioos:station:DISL:MHPA:1,2013-05-02T20:00:00Z,30.6671,-87.9365,-0.9,20.71,2 
DISL,ioos:station:DISL:MHPA:1,2013-05-02T20:30:00Z,30.6671,-87.9365,-0.9,20.7,2 
DISL,ioos:station:DISL:MHPA:1,2013-05-02T21:00:00Z,30.6671,-87.9365,-0.9,20.76,2 
DISL,ioos:station:DISL:MHPA:1,2013-05-02T21:30:00Z,30.6671,-87.9365,-0.9,20.85,2 
DISL,ioos:station:DISL:MHPA:1,2013-05-02T22:00:00Z,30.6671,-87.9365,-0.9,21.01,2 
DISL,ioos:station:DISL:MHPA:1,2013-05-02T22:30:00Z,30.6671,-87.9365,-0.9,21.15,2 
DISL,ioos:station:DISL:MHPA:1,2013-05-02T23:00:00Z,30.6671,-87.9365,-0.9,21.15,2 
DISL,ioos:station:DISL:MHPA:1,2013-05-02T23:30:00Z,30.6671,-87.9365,-0.9,21.14,2 
DISL,ioos:station:DISL:MHPA:1,2013-05-03T00:00:00Z,30.6671,-87.9365,-0.9,21.08,2 
DISL,ioos:station:DISL:MHPA:1,2013-05-03T00:30:00Z,30.6671,-87.9365,-0.9,20.94,2 
DISL,ioos:station:DISL:MHPA:1,2013-05-03T01:00:00Z,30.6671,-87.9365,-0.9,20.97,2 
DISL,ioos:station:DISL:MHPA:1,2013-05-03T01:30:00Z,30.6671,-87.9365,-0.9,20.98,2 
DISL,ioos:station:DISL:MHPA:1,2013-05-03T02:00:00Z,30.6671,-87.9365,-0.9,20.93,2 
DISL,ioos:station:DISL:MHPA:1,2013-05-03T02:30:00Z,30.6671,-87.9365,-0.9,21.0,2 
DISL,ioos:station:DISL:MHPA:1,2013-05-03T03:00:00Z,30.6671,-87.9365,-0.9,20.94,2 
DISL,ioos:station:DISL:MHPA:1,2013-05-03T03:30:00Z,30.6671,-87.9365,-0.9,20.92,2 
DISL,ioos:station:DISL:MHPA:1,2013-05-03T04:00:00Z,30.6671,-87.9365,-0.9,20.95,2 
DISL,ioos:station:DISL:MHPA:1,2013-05-03T04:30:00Z,30.6671,-87.9365,-0.9,20.94,2 
DISL,ioos:station:DISL:MHPA:1,2013-05-03T05:00:00Z,30.6671,-87.9365,-0.9,20.9,2 
DISL,ioos:station:DISL:MHPA:1,2013-05-03T05:30:00Z,30.6671,-87.9365,-0.9,20.78,2 
DISL,ioos:station:DISL:MHPA:1,2013-05-03T06:00:00Z,30.6671,-87.9365,-0.9,20.84,2 
DISL,ioos:station:DISL:MHPA:1,2013-05-03T06:30:00Z,30.6671,-87.9365,-0.9,20.72,2 
DISL,ioos:station:DISL:MHPA:1,2013-05-03T07:00:00Z,30.6671,-87.9365,-0.9,20.76,2 
DISL,ioos:station:DISL:MHPA:1,2013-05-03T07:30:00Z,30.6671,-87.9365,-0.9,20.72,2 
DISL,ioos:station:DISL:MHPA:1,2013-05-03T08:00:00Z,30.6671,-87.9365,-0.9,20.72,2 
DISL,ioos:station:DISL:MHPA:1,2013-05-03T08:30:00Z,30.6671,-87.9365,-0.9,20.71,2 
DISL,ioos:station:DISL:MHPA:1,2013-05-03T09:00:00Z,30.6671,-87.9365,-0.9,20.69,2 
DISL,ioos:station:DISL:MHPA:1,2013-05-03T09:30:00Z,30.6671,-87.9365,-0.9,20.65,2 
DISL,ioos:station:DISL:MHPA:1,2013-05-03T10:00:00Z,30.6671,-87.9365,-0.9,20.65,2 
DISL,ioos:station:DISL:MHPA:1,2013-05-03T10:30:00Z,30.6671,-87.9365,-0.9,20.62,2 
DISL,ioos:station:DISL:MHPA:1,2013-05-03T11:00:00Z,30.6671,-87.9365,-0.9,20.58,2 
DISL,ioos:station:DISL:MHPA:1,2013-05-03T11:30:00Z,30.6671,-87.9365,-0.9,20.56,2 
DISL,ioos:station:DISL:MHPA:1,2013-05-03T12:00:00Z,30.6671,-87.9365,-0.9,20.54,2 
DISL,ioos:station:DISL:MHPA:1,2013-05-03T12:30:00Z,30.6671,-87.9365,-0.9,20.53,2 
DISL,ioos:station:DISL:MHPA:1,2013-05-03T13:00:00Z,30.6671,-87.9365,-0.9,20.52,2 
DISL,ioos:station:DISL:MHPA:1,2013-05-03T13:30:00Z,30.6671,-87.9365,-0.9,20.5,2 
DISL,ioos:station:DISL:MHPA:1,2013-05-03T14:00:00Z,30.6671,-87.9365,-0.9,20.47,2 
DISL,ioos:station:DISL:MHPA:1,2013-05-03T14:30:00Z,30.6671,-87.9365,-0.9,20.48,2 
DISL,ioos:station:DISL:MHPA:1,2013-05-03T15:00:00Z,30.6671,-87.9365,-0.9,20.5,2 
DISL,ioos:station:DISL:MHPA:1,2013-05-03T15:30:00Z,30.6671,-87.9365,-0.9,20.57,2 
DISL,ioos:station:DISL:MHPA:1,2013-05-03T16:00:00Z,30.6671,-87.9365,-0.9,20.81,2 
DISL,ioos:station:DISL:MHPA:1,2013-05-03T16:30:00Z,30.6671,-87.9365,-0.9,20.91,2 
DISL,ioos:station:DISL:MHPA:1,2013-05-03T17:00:00Z,30.6671,-87.9365,-0.9,20.93,2 
DISL,ioos:station:DISL:MHPA:1,2013-05-03T17:30:00Z,30.6671,-87.9365,-0.9,20.97,2 
DISL,ioos:station:DISL:MHPA:1,2013-05-03T18:00:00Z,30.6671,-87.9365,-0.9,21.05,2 
DISL,ioos:station:DISL:MHPA:1,2013-05-03T18:30:00Z,30.6671,-87.9365,-0.9,21.1,2 
DISL,ioos:station:DISL:MHPA:1,2013-05-03T19:00:00Z,30.6671,-87.9365,-0.9,21.06,2 
DISL,ioos:station:DISL:MHPA:1,2013-05-03T19:30:00Z,30.6671,-87.9365,-0.9,21.12,2 
DISL,ioos:station:DISL:MHPA:1,2013-05-03T20:00:00Z,30.6671,-87.9365,-0.9,21.09,2 
DISL,ioos:station:DISL:MHPA:1,2013-05-03T20:30:00Z,30.6671,-87.9365,-0.9,21.13,2 
DISL,ioos:station:DISL:MHPA:1,2013-05-03T21:00:00Z,30.6671,-87.9365,-0.9,21.09,2 
DISL,ioos:station:DISL:MHPA:1,2013-05-03T21:30:00Z,30.6671,-87.9365,-0.9,21.11,2 
DISL,ioos:station:DISL:MHPA:1,2013-05-03T22:00:00Z,30.6671,-87.9365,-0.9,21.15,2 
DISL,ioos:station:DISL:MHPA:1,2013-05-03T22:30:00Z,30.6671,-87.9365,-0.9,21.36,2 
DISL,ioos:station:DISL:MHPA:1,2013-05-03T23:00:00Z,30.6671,-87.9365,-0.9,21.46,2 
DISL,ioos:station:DISL:MHPA:1,2013-05-03T23:30:00Z,30.6671,-87.9365,-0.9,21.48,2 
DISL,ioos:station:DISL:MHPA:1,2013-05-04T00:00:00Z,30.6671,-87.9365,-0.9,21.35,2 
DISL,ioos:station:DISL:MHPA:1,2013-05-04T00:30:00Z,30.6671,-87.9365,-0.9,20.99,2 
DISL,ioos:station:DISL:MHPA:1,2013-05-04T01:00:00Z,30.6671,-87.9365,-0.9,21.02,2 
DISL,ioos:station:DISL:MHPA:1,2013-05-04T01:30:00Z,30.6671,-87.9365,-0.9,20.94,2 
DISL,ioos:station:DISL:MHPA:1,2013-05-04T02:00:00Z,30.6671,-87.9365,-0.9,20.87,2 
DISL,ioos:station:DISL:MHPA:1,2013-05-04T02:30:00Z,30.6671,-87.9365,-0.9,20.79,2 
DISL,ioos:station:DISL:MHPA:1,2013-05-04T03:00:00Z,30.6671,-87.9365,-0.9,20.7,2 
DISL,ioos:station:DISL:MHPA:1,2013-05-04T03:30:00Z,30.6671,-87.9365,-0.9,20.6,2 
DISL,ioos:station:DISL:MHPA:1,2013-05-04T04:00:00Z,30.6671,-87.9365,-0.9,20.53,2 
DISL,ioos:station:DISL:MHPA:1,2013-05-04T04:30:00Z,30.6671,-87.9365,-0.9,20.38,2 
DISL,ioos:station:DISL:MHPA:1,2013-05-04T05:00:00Z,30.6671,-87.9365,-0.9,20.21,2 
DISL,ioos:station:DISL:MHPA:1,2013-05-04T05:30:00Z,30.6671,-87.9365,-0.9,20.11,2 
DISL,ioos:station:DISL:MHPA:1,2013-05-04T06:00:00Z,30.6671,-87.9365,-0.9,19.95,2 
DISL,ioos:station:DISL:MHPA:1,2013-05-04T06:30:00Z,30.6671,-87.9365,-0.9,19.82,2 
DISL,ioos:station:DISL:MHPA:1,2013-05-04T07:00:00Z,30.6671,-87.9365,-0.9,19.71,2 
DISL,ioos:station:DISL:MHPA:1,2013-05-04T07:30:00Z,30.6671,-87.9365,-0.9,19.57,2 
DISL,ioos:station:DISL:MHPA:1,2013-05-04T08:00:00Z,30.6671,-87.9365,-0.9,19.53,2 
DISL,ioos:station:DISL:MHPA:1,2013-05-04T08:30:00Z,30.6671,-87.9365,-0.9,19.46,2 
DISL,ioos:station:DISL:MHPA:1,2013-05-04T09:00:00Z,30.6671,-87.9365,-0.9,19.4,2 
DISL,ioos:station:DISL:MHPA:1,2013-05-04T09:30:00Z,30.6671,-87.9365,-0.9,19.34,2 
DISL,ioos:station:DISL:MHPA:1,2013-05-04T10:00:00Z,30.6671,-87.9365,-0.9,19.15,2 
DISL,ioos:station:DISL:MHPA:1,2013-05-04T10:30:00Z,30.6671,-87.9365,-0.9,19.09,2 
DISL,ioos:station:DISL:MHPA:1,2013-05-04T11:00:00Z,30.6671,-87.9365,-0.9,18.97,2 
DISL,ioos:station:DISL:MHPA:1,2013-05-04T11:30:00Z,30.6671,-87.9365,-0.9,18.87,2 
DISL,ioos:station:DISL:MHPA:1,2013-05-04T12:00:00Z,30.6671,-87.9365,-0.9,18.76,2 
DISL,ioos:station:DISL:MHPA:1,2013-05-04T12:30:00Z,30.6671,-87.9365,-0.9,18.66,2 
DISL,ioos:station:DISL:MHPA:1,2013-05-04T13:00:00Z,30.6671,-87.9365,-0.9,18.63,2 
DISL,ioos:station:DISL:MHPA:1,2013-05-04T13:30:00Z,30.6671,-87.9365,-0.9,18.58,2 
DISL,ioos:station:DISL:MHPA:1,2013-05-04T14:00:00Z,30.6671,-87.9365,-0.9,18.55,2 
DISL,ioos:station:DISL:MHPA:1,2013-05-04T14:30:00Z,30.6671,-87.9365,-0.9,18.56,2 
DISL,ioos:station:DISL:MHPA:1,2013-05-04T15:00:00Z,30.6671,-87.9365,-0.9,18.53,2 
DISL,ioos:station:DISL:MHPA:1,2013-05-04T15:30:00Z,30.6671,-87.9365,-0.9,18.59,2 
DISL,ioos:station:DISL:MHPA:1,2013-05-04T16:00:00Z,30.6671,-87.9365,-0.9,18.66,2 
DISL,ioos:station:DISL:MHPA:1,2013-05-04T16:30:00Z,30.6671,-87.9365,-0.9,18.8,2 
DISL,ioos:station:DISL:MHPA:1,2013-05-04T17:00:00Z,30.6671,-87.9365,-0.9,18.95,2 
DISL,ioos:station:DISL:MHPA:1,2013-05-04T17:30:00Z,30.6671,-87.9365,-0.9,19.09,2 
DISL,ioos:station:DISL:MHPA:1,2013-05-04T18:00:00Z,30.6671,-87.9365,-0.9,19.11,2 
DISL,ioos:station:DISL:MHPA:1,2013-05-04T18:30:00Z,30.6671,-87.9365,-0.9,19.28,2 
DISL,ioos:station:DISL:MHPA:1,2013-05-04T19:00:00Z,30.6671,-87.9365,-0.9,19.54,2 
DISL,ioos:station:DISL:MHPA:1,2013-05-04T19:30:00Z,30.6671,-87.9365,-0.9,19.43,2 
DISL,ioos:station:DISL:MHPA:1,2013-05-04T20:00:00Z,30.6671,-87.9365,-0.9,19.69,2 
DISL,ioos:station:DISL:MHPA:1,2013-05-04T20:30:00Z,30.6671,-87.9365,-0.9,19.85,2 
DISL,ioos:station:DISL:MHPA:1,2013-05-04T21:00:00Z,30.6671,-87.9365,-0.9,19.83,2 
DISL,ioos:station:DISL:MHPA:1,2013-05-04T21:30:00Z,30.6671,-87.9365,-0.9,19.97,2 
DISL,ioos:station:DISL:MHPA:1,2013-05-04T22:00:00Z,30.6671,-87.9365,-0.9,20.04,2 
DISL,ioos:station:DISL:MHPA:1,2013-05-04T22:30:00Z,30.6671,-87.9365,-0.9,20.24,2 
DISL,ioos:station:DISL:MHPA:1,2013-05-04T23:00:00Z,30.6671,-87.9365,-0.9,20.24,2 
DISL,ioos:station:DISL:MHPA:1,2013-05-04T23:30:00Z,30.6671,-87.9365,-0.9,20.15,2 
DISL,ioos:station:DISL:MHPA:1,2013-05-05T00:00:00Z,30.6671,-87.9365,-0.9,20.36,2 
DISL,ioos:station:DISL:MHPA:1,2013-05-05T00:30:00Z,30.6671,-87.9365,-0.9,20.24,2 
DISL,ioos:station:DISL:MHPA:1,2013-05-05T01:00:00Z,30.6671,-87.9365,-0.9,20.25,2 
DISL,ioos:station:DISL:MHPA:1,2013-05-05T01:30:00Z,30.6671,-87.9365,-0.9,20.19,2 
DISL,ioos:station:DISL:MHPA:1,2013-05-05T02:00:00Z,30.6671,-87.9365,-0.9,20.09,2 
DISL,ioos:station:DISL:MHPA:1,2013-05-05T02:30:00Z,30.6671,-87.9365,-0.9,20.02,2 
DISL,ioos:station:DISL:MHPA:1,2013-05-05T03:00:00Z,30.6671,-87.9365,-0.9,19.98,2 
DISL,ioos:station:DISL:MHPA:1,2013-05-05T03:30:00Z,30.6671,-87.9365,-0.9,19.92,2 
DISL,ioos:station:DISL:MHPA:1,2013-05-05T04:00:00Z,30.6671,-87.9365,-0.9,19.89,2 
DISL,ioos:station:DISL:MHPA:1,2013-05-05T04:30:00Z,30.6671,-87.9365,-0.9,19.86,2 
DISL,ioos:station:DISL:MHPA:1,2013-05-05T05:00:00Z,30.6671,-87.9365,-0.9,19.8,2 
DISL,ioos:station:DISL:MHPA:1,2013-05-05T05:30:00Z,30.6671,-87.9365,-0.9,19.74,2 
DISL,ioos:station:DISL:MHPA:1,2013-05-05T06:00:00Z,30.6671,-87.9365,-0.9,19.69,2 
DISL,ioos:station:DISL:MHPA:1,2013-05-05T06:30:00Z,30.6671,-87.9365,-0.9,19.67,2 
DISL,ioos:station:DISL:MHPA:1,2013-05-05T07:00:00Z,30.6671,-87.9365,-0.9,19.63,2 
DISL,ioos:station:DISL:MHPA:1,2013-05-05T07:30:00Z,30.6671,-87.9365,-0.9,19.6,2 
DISL,ioos:station:DISL:MHPA:1,2013-05-05T08:00:00Z,30.6671,-87.9365,-0.9,19.57,2 
DISL,ioos:station:DISL:MHPA:1,2013-05-05T08:30:00Z,30.6671,-87.9365,-0.9,19.54,2 
DISL,ioos:station:DISL:MHPA:1,2013-05-05T09:00:00Z,30.6671,-87.9365,-0.9,19.5,2 
DISL,ioos:station:DISL:MHPA:1,2013-05-05T09:30:00Z,30.6671,-87.9365,-0.9,19.46,2 
DISL,ioos:station:DISL:MHPA:1,2013-05-05T10:00:00Z,30.6671,-87.9365,-0.9,19.42,2 
DISL,ioos:station:DISL:MHPA:1,2013-05-05T10:30:00Z,30.6671,-87.9365,-0.9,19.37,2 
DISL,ioos:station:DISL:MHPA:1,2013-05-05T11:00:00Z,30.6671,-87.9365,-0.9,19.3,2 
DISL,ioos:station:DISL:MHPA:1,2013-05-05T11:30:00Z,30.6671,-87.9365,-0.9,19.31,2 
DISL,ioos:station:DISL:MHPA:1,2013-05-05T12:00:00Z,30.6671,-87.9365,-0.9,19.24,2 
DISL,ioos:station:DISL:MHPA:1,2013-05-05T12:30:00Z,30.6671,-87.9365,-0.9,19.25,2 
DISL,ioos:station:DISL:MHPA:1,2013-05-05T13:00:00Z,30.6671,-87.9365,-0.9,19.25,2 
DISL,ioos:station:DISL:MHPA:1,2013-05-05T13:30:00Z,30.6671,-87.9365,-0.9,19.25,2 
DISL,ioos:station:DISL:MHPA:1,2013-05-05T14:00:00Z,30.6671,-87.9365,-0.9,19.24,2 
DISL,ioos:station:DISL:MHPA:1,2013-05-05T14:30:00Z,30.6671,-87.9365,-0.9,19.24,2 
DISL,ioos:station:DISL:MHPA:1,2013-05-05T15:00:00Z,30.6671,-87.9365,-0.9,19.27,2 
DISL,ioos:station:DISL:MHPA:1,2013-05-05T15:30:00Z,30.6671,-87.9365,-0.9,19.28,2 
DISL,ioos:station:DISL:MHPA:1,2013-05-05T16:00:00Z,30.6671,-87.9365,-0.9,19.39,2 
DISL,ioos:station:DISL:MHPA:1,2013-05-05T16:30:00Z,30.6671,-87.9365,-0.9,19.49,2 
DISL,ioos:station:DISL:MHPA:1,2013-05-05T17:00:00Z,30.6671,-87.9365,-0.9,19.57,2 
DISL,ioos:station:DISL:MHPA:1,2013-05-05T17:30:00Z,30.6671,-87.9365,-0.9,19.68,2 
DISL,ioos:station:DISL:MHPA:1,2013-05-05T18:00:00Z,30.6671,-87.9365,-0.9,19.79,2 
DISL,ioos:station:DISL:MHPA:1,2013-05-05T18:30:00Z,30.6671,-87.9365,-0.9,19.91,2 
DISL,ioos:station:DISL:MHPA:1,2013-05-05T19:00:00Z,30.6671,-87.9365,-0.9,19.98,2 
DISL,ioos:station:DISL:MHPA:1,2013-05-05T19:30:00Z,30.6671,-87.9365,-0.9,20.06,2 
DISL,ioos:station:DISL:MHPA:1,2013-05-05T20:00:00Z,30.6671,-87.9365,-0.9,20.13,2 
DISL,ioos:station:DISL:MHPA:1,2013-05-05T20:30:00Z,30.6671,-87.9365,-0.9,20.16,2 
DISL,ioos:station:DISL:MHPA:1,2013-05-05T21:00:00Z,30.6671,-87.9365,-0.9,20.4,2 
DISL,ioos:station:DISL:MHPA:1,2013-05-05T21:30:00Z,30.6671,-87.9365,-0.9,20.66,2 
DISL,ioos:station:DISL:MHPA:1,2013-05-05T22:00:00Z,30.6671,-87.9365,-0.9,20.59,2 
DISL,ioos:station:DISL:MHPA:1,2013-05-05T22:30:00Z,30.6671,-87.9365,-0.9,20.49,2 
DISL,ioos:station:DISL:MHPA:1,2013-05-05T23:00:00Z,30.6671,-87.9365,-0.9,20.59,2 
DISL,ioos:station:DISL:MHPA:1,2013-05-05T23:30:00Z,30.6671,-87.9365,-0.9,20.62,2 
DISL,ioos:station:DISL:MHPA:1,2013-05-06T00:00:00Z,30.6671,-87.9365,-0.9,20.74,2 
DISL,ioos:station:DISL:MHPA:1,2013-05-06T00:30:00Z,30.6671,-87.9365,-0.9,20.58,2 
DISL,ioos:station:DISL:MHPA:1,2013-05-06T01:00:00Z,30.6671,-87.9365,-0.9,20.45,2 
DISL,ioos:station:DISL:MHPA:1,2013-05-06T01:30:00Z,30.6671,-87.9365,-0.9,20.34,2 
DISL,ioos:station:DISL:MHPA:1,2013-05-06T02:00:00Z,30.6671,-87.9365,-0.9,20.26,2 
DISL,ioos:station:DISL:MHPA:1,2013-05-06T02:30:00Z,30.6671,-87.9365,-0.9,20.19,2 
DISL,ioos:station:DISL:MHPA:1,2013-05-06T03:00:00Z,30.6671,-87.9365,-0.9,20.11,2 
DISL,ioos:station:DISL:MHPA:1,2013-05-06T03:30:00Z,30.6671,-87.9365,-0.9,20.1,2 
DISL,ioos:station:DISL:MHPA:1,2013-05-06T04:00:00Z,30.6671,-87.9365,-0.9,20.07,2 
DISL,ioos:station:DISL:MHPA:1,2013-05-06T04:30:00Z,30.6671,-87.9365,-0.9,20.04,2 
DISL,ioos:station:DISL:MHPA:1,2013-05-06T05:00:00Z,30.6671,-87.9365,-0.9,19.99,2 
DISL,ioos:station:DISL:MHPA:1,2013-05-06T05:30:00Z,30.6671,-87.9365,-0.9,19.96,2 
DISL,ioos:station:DISL:MHPA:1,2013-05-06T06:00:00Z,30.6671,-87.9365,-0.9,19.92,2 
DISL,ioos:station:DISL:MHPA:1,2013-05-06T06:30:00Z,30.6671,-87.9365,-0.9,19.85,2 
DISL,ioos:station:DISL:MHPA:1,2013-05-06T07:00:00Z,30.6671,-87.9365,-0.9,19.79,2 
DISL,ioos:station:DISL:MHPA:1,2013-05-06T07:30:00Z,30.6671,-87.9365,-0.9,19.74,2 
DISL,ioos:station:DISL:MHPA:1,2013-05-06T08:00:00Z,30.6671,-87.9365,-0.9,19.67,2 
DISL,ioos:station:DISL:MHPA:1,2013-05-06T08:30:00Z,30.6671,-87.9365,-0.9,19.61,2 
DISL,ioos:station:DISL:MHPA:1,2013-05-06T09:00:00Z,30.6671,-87.9365,-0.9,19.55,2 
DISL,ioos:station:DISL:MHPA:1,2013-05-06T09:30:00Z,30.6671,-87.9365,-0.9,19.47,2 
DISL,ioos:station:DISL:MHPA:1,2013-05-06T10:00:00Z,30.6671,-87.9365,-0.9,19.41,2 
DISL,ioos:station:DISL:MHPA:1,2013-05-06T10:30:00Z,30.6671,-87.9365,-0.9,19.36,2 
DISL,ioos:station:DISL:MHPA:1,2013-05-06T11:00:00Z,30.6671,-87.9365,-0.9,19.29,2 
DISL,ioos:station:DISL:MHPA:1,2013-05-06T11:30:00Z,30.6671,-87.9365,-0.9,19.17,2 
DISL,ioos:station:DISL:MHPA:1,2013-05-06T12:00:00Z,30.6671,-87.9365,-0.9,19.05,2 
DISL,ioos:station:DISL:MHPA:1,2013-05-06T12:30:00Z,30.6671,-87.9365,-0.9,18.97,2 
DISL,ioos:station:DISL:MHPA:1,2013-05-06T13:00:00Z,30.6671,-87.9365,-0.9,18.89,2 
DISL,ioos:station:DISL:MHPA:1,2013-05-06T13:30:00Z,30.6671,-87.9365,-0.9,18.86,2 
DISL,ioos:station:DISL:MHPA:1,2013-05-06T14:00:00Z,30.6671,-87.9365,-0.9,18.8,2 
DISL,ioos:station:DISL:MHPA:1,2013-05-06T14:30:00Z,30.6671,-87.9365,-0.9,18.84,2 
DISL,ioos:station:DISL:MHPA:1,2013-05-06T15:00:00Z,30.6671,-87.9365,-0.9,18.85,2 
DISL,ioos:station:DISL:MHPA:1,2013-05-06T15:30:00Z,30.6671,-87.9365,-0.9,18.86,2 
DISL,ioos:station:DISL:MHPA:1,2013-05-06T16:00:00Z,30.6671,-87.9365,-0.9,18.88,2 
DISL,ioos:station:DISL:MHPA:1,2013-05-06T16:30:00Z,30.6671,-87.9365,-0.9,18.94,2 
DISL,ioos:station:DISL:MHPA:1,2013-05-06T17:00:00Z,30.6671,-87.9365,-0.9,19.03,2 
DISL,ioos:station:DISL:MHPA:1,2013-05-06T17:30:00Z,30.6671,-87.9365,-0.9,19.15,2 
DISL,ioos:station:DISL:MHPA:1,2013-05-06T18:00:00Z,30.6671,-87.9365,-0.9,19.23,2 
DISL,ioos:station:DISL:MHPA:1,2013-05-06T18:30:00Z,30.6671,-87.9365,-0.9,19.36,2 
DISL,ioos:station:DISL:MHPA:1,2013-05-06T19:00:00Z,30.6671,-87.9365,-0.9,19.6,2 
DISL,ioos:station:DISL:MHPA:1,2013-05-06T19:30:00Z,30.6671,-87.9365,-0.9,19.63,2 
DISL,ioos:station:DISL:MHPA:1,2013-05-06T20:00:00Z,30.6671,-87.9365,-0.9,19.91,2 
DISL,ioos:station:DISL:MHPA:1,2013-05-06T20:30:00Z,30.6671,-87.9365,-0.9,19.63,2 
DISL,ioos:station:DISL:MHPA:1,2013-05-06T21:00:00Z,30.6671,-87.9365,-0.9,19.75,2 
DISL,ioos:station:DISL:MHPA:1,2013-05-06T21:30:00Z,30.6671,-87.9365,-0.9,19.73,2 
DISL,ioos:station:DISL:MHPA:1,2013-05-06T22:00:00Z,30.6671,-87.9365,-0.9,19.76,2 
DISL,ioos:station:DISL:MHPA:1,2013-05-06T22:30:00Z,30.6671,-87.9365,-0.9,19.79,2 
DISL,ioos:station:DISL:MHPA:1,2013-05-06T23:00:00Z,30.6671,-87.9365,-0.9,19.84,2 
DISL,ioos:station:DISL:MHPA:1,2013-05-06T23:30:00Z,30.6671,-87.9365,-0.9,19.85,2 
DISL,ioos:station:DISL:MHPA:1,2013-05-07T00:00:00Z,30.6671,-87.9365,-0.9,19.89,2 
DISL,ioos:station:DISL:MHPA:1,2013-05-07T00:30:00Z,30.6671,-87.9365,-0.9,19.85,2 
DISL,ioos:station:DISL:MHPA:1,2013-05-07T01:00:00Z,30.6671,-87.9365,-0.9,19.82,2 